This demonstration page uses our WeatherBlox Daily Observations layout. Learn more.

41.55636, -103.73856

Hourly Observations for April 9, 2019

Temp ( °F °C ) Dew Point ( °F °C ) Humidity (%) Winds ( mph kmh ) Pressure ( in mb ) Visibility ( mi km ) Precip ( " mm )
12:53 am 00:53 Mostly Clear 45 7.2 37 2.8 74 74 E 7 11 29.91 1013 10 16.09344 0 0
1:53 am 01:53 Clear 45 7.2 36 2.2 71 71 E 3 6 29.88 1012 10 16.09344 0 0
2:53 am 02:53 Clear 41 5 37 2.8 86 86 N 3 6 29.88 1012 10 16.09344 0 0
3:53 am 03:53 Clear 42 5.6 37 2.8 82 82 ENE 6 9 29.85 1011 10 16.09344 0 0
4:53 am 04:53 Mostly Clear 39 3.9 35 1.7 86 86 E 6 9 29.83 1010 10 16.09344 0 0
5:53 am 05:53 Mostly Clear 40 4.4 36 2.2 86 86 E 5 7 29.83 1010 10 16.09344 0 0
6:53 am 06:53 Sunny 41 5 38 3.3 89 89 SE 7 11 29.8 1009 10 16.09344 0 0
7:53 am 07:53 Sunny 46 7.8 40 4.4 79 79 ESE 9 15 29.77 1008 10 16.09344 0 0
8:53 am 08:53 Sunny 51 10.6 41 5 69 69 ESE 9 15 29.74 1007 10 16.09344 0 0
9:53 am 09:53 Sunny 55 12.8 42 5.6 62 62 SE 7 11 29.71 1006 10 16.09344 0 0
10:53 am 10:53 Sunny 59 15 42 5.6 54 54 SE 6 9 29.68 1005 10 16.09344 0 0
11:53 am 11:53 Sunny 66 18.9 43 6.1 43 43 ESE 6 9 29.62 1003 10 16.09344 0 0
12:53 pm 12:53 Sunny 73 22.8 41 5 32 32 SE 5 7 29.59 1002 10 16.09344 0 0
1:53 pm 13:53 Sunny 75 23.9 39 3.9 27 27 S 3 6 29.56 1001 10 16.09344 0 0
2:53 pm 14:53 Mostly Cloudy 75 23.9 35 1.7 23 23 NE 6 9 29.53 1000 10 16.09344 0 0
3:53 pm 15:53 Cloudy 73 22.8 33 0.6 23 23 NNW 5 7 29.53 1000 10 16.09344 0 0
4:53 pm 16:53 Cloudy 72 22.2 38 3.3 29 29 NNE 8 13 29.5 999 10 16.09344 0 0
5:53 pm 17:53 Mostly Sunny 71 21.7 39 3.9 31 31 NE 17 28 29.47 998 10 16.09344 0 0
6:53 pm 18:53 Mostly Sunny 62 16.7 41 5 46 46 NNE 21 33 29.5 999 10 16.09344 0 0
7:53 pm 19:53 Clear 59 15 40 4.4 49 49 NE 23 37 29.5 999 10 16.09344 0 0
8:53 pm 20:53 Mostly Cloudy 60 15.6 42 5.6 52 52 NE 20 31 29.47 998 10 16.09344 0 0
9:53 pm 21:53 Mostly Clear 55 12.8 42 5.6 62 62 NE 18 30 29.47 998 10 16.09344 0 0
10:53 pm 22:53 Clear 55 12.8 45 7.2 69 69 NE 24 39 29.47 998 10 16.09344 0 0
11:53 pm 23:53 Clear 48 8.9 40 4.4 74 74 NE 28 44 29.47 998 10 16.09344 0 0

Powered by AerisWeather